TimeEDT,TemperatureF,Dew PointF,Humidity,Sea Level PressureIn,VisibilityMPH,Wind Direction,Wind SpeedMPH,Gust SpeedMPH,PrecipitationIn,Events,Conditions,WindDirDegrees,DateUTC
12:15 AM,53.8,39.7,59,29.68,10.0,South,9.2,16.1,N/A,,Overcast,190,2013-03-11 04:15:00
12:35 AM,53.8,40.3,60,29.69,10.0,South,8.1,-,N/A,Rain,Rain,190,2013-03-11 04:35:00
12:55 AM,52.2,42.8,70,29.68,10.0,South,9.2,20.7,N/A,Rain,Light Rain,180,2013-03-11 04:55:00
1:15 AM,50.5,44.6,80,29.68,10.0,South,10.4,18.4,N/A,,Light Drizzle,180,2013-03-11 05:15:00
1:35 AM,50.0,45.1,83,29.67,10.0,South,11.5,-,N/A,,Drizzle,170,2013-03-11 05:35:00
1:54 AM,50.4,45.0,82,29.66,10.0,South,13.8,19.6,N/A,Rain,Light Rain,180,2013-03-11 05:54:00
2:15 AM,50.9,46.0,83,29.65,10.0,South,12.7,20.7,N/A,,Overcast,190,2013-03-11 06:15:00
2:55 AM,50.0,47.5,91,29.66,5.0,South,10.4,-,N/A,Rain,Rain,190,2013-03-11 06:55:00
3:15 AM,49.3,47.7,94,29.66,5.0,South,6.9,-,N/A,Rain,Light Rain,190,2013-03-11 07:15:00
3:35 AM,49.1,47.8,95,29.65,4.0,South,6.9,-,N/A,Rain,Rain,170,2013-03-11 07:35:00
3:55 AM,48.4,47.3,96,29.64,5.0,South,5.8,-,N/A,,Overcast,170,2013-03-11 07:55:00
4:15 AM,47.8,46.8,96,29.64,5.0,South,6.9,-,N/A,Rain,Rain,170,2013-03-11 08:15:00
4:34 AM,47.5,46.6,97,29.63,5.0,South,4.6,-,N/A,,Overcast,170,2013-03-11 08:34:00
4:54 AM,47.5,46.6,97,29.63,4.0,South,4.6,-,N/A,,Drizzle,170,2013-03-11 08:54:00
5:15 AM,48.6,47.7,97,29.63,4.0,SSW,12.7,17.3,N/A,Rain,Rain,210,2013-03-11 09:15:00
5:35 AM,48.6,47.1,95,29.63,7.0,SW,6.9,-,N/A,,Overcast,220,2013-03-11 09:35:00
5:54 AM,48.4,46.8,94,29.62,10.0,SSW,5.8,-,N/A,,Overcast,210,2013-03-11 09:54:00
6:15 AM,48.2,46.4,93,29.61,10.0,SW,5.8,-,N/A,,Overcast,230,2013-03-11 10:15:00
6:35 AM,48.2,46.2,93,29.62,10.0,SSW,4.6,-,N/A,,Overcast,210,2013-03-11 10:35:00
6:55 AM,48.2,46.4,93,29.62,10.0,SSW,4.6,-,N/A,,Overcast,200,2013-03-11 10:55:00
7:15 AM,47.3,45.7,94,29.61,10.0,SSW,3.5,-,N/A,,Mostly Cloudy,210,2013-03-11 11:15:00
7:35 AM,46.4,45.0,95,29.64,7.0,South,4.6,-,N/A,,Mostly Cloudy,180,2013-03-11 11:35:00
7:55 AM,46.4,45.5,97,29.64,5.0,SSE,3.5,-,N/A,,Overcast,160,2013-03-11 11:55:00
8:15 AM,46.4,45.5,97,29.63,2.5,Calm,Calm,-,N/A,,Overcast,0,2013-03-11 12:15:00
8:35 AM,46.4,45.5,97,29.63,4.0,South,3.5,-,N/A,,Overcast,180,2013-03-11 12:35:00
8:55 AM,45.9,45.0,97,29.62,4.0,South,3.5,-,N/A,,Overcast,170,2013-03-11 12:55:00
9:15 AM,46.4,45.5,97,29.62,5.0,SSE,4.6,-,N/A,,Overcast,160,2013-03-11 13:15:00
9:35 AM,47.1,45.5,94,29.60,10.0,SSE,3.5,-,N/A,,Overcast,160,2013-03-11 13:35:00
9:54 AM,47.5,45.9,94,29.60,7.0,SSE,6.9,-,N/A,,Overcast,160,2013-03-11 13:54:00
10:15 AM,47.7,46.0,94,29.60,7.0,South,6.9,-,N/A,,Overcast,170,2013-03-11 14:15:00
10:35 AM,47.5,46.2,95,29.59,5.0,SSE,5.8,-,N/A,,Overcast,160,2013-03-11 14:35:00
10:55 AM,47.8,46.4,95,29.58,5.0,SE,4.6,-,N/A,,Overcast,140,2013-03-11 14:55:00
11:15 AM,47.8,46.4,95,29.57,3.0,SSE,4.6,-,N/A,Rain,Light Rain,150,2013-03-11 15:15:00
11:34 AM,47.8,46.6,95,29.57,3.0,SSE,3.5,-,N/A,Rain,Rain,160,2013-03-11 15:34:00
11:54 AM,48.2,46.9,95,29.56,3.0,SSE,3.5,-,N/A,Rain,Light Rain,160,2013-03-11 15:54:00
12:14 PM,48.2,47.3,97,29.55,1.8,SSW,3.5,-,N/A,Rain,Rain,210,2013-03-11 16:14:00
12:35 PM,48.2,47.3,97,29.55,2.5,WSW,16.1,20.7,N/A,Rain,Heavy Rain,240,2013-03-11 16:35:00
12:54 PM,43.9,42.8,96,29.56,1.8,WSW,15.0,19.6,N/A,Rain,Light Rain,240,2013-03-11 16:54:00
1:15 PM,42.8,41.9,97,29.56,2.5,WSW,13.8,19.6,N/A,Rain,Light Rain,250,2013-03-11 17:15:00
1:34 PM,41.7,40.8,97,29.57,2.0,SW,9.2,18.4,N/A,Rain,Rain,220,2013-03-11 17:34:00
1:54 PM,41.2,40.5,97,29.55,2.5,WSW,11.5,20.7,N/A,,Light Drizzle,250,2013-03-11 17:54:00
2:14 PM,41.0,40.1,97,29.54,3.0,WSW,5.8,-,N/A,,Overcast,250,2013-03-11 18:14:00
2:34 PM,40.5,39.6,97,29.52,3.0,WSW,13.8,18.4,N/A,,Overcast,240,2013-03-11 18:34:00
2:55 PM,40.1,38.8,95,29.52,5.0,WSW,12.7,20.7,N/A,,Overcast,240,2013-03-11 18:55:00
3:15 PM,40.5,39.0,95,29.53,7.0,WSW,9.2,-,N/A,,Overcast,240,2013-03-11 19:15:00
3:35 PM,39.7,37.9,93,29.52,10.0,SW,8.1,-,N/A,,Overcast,230,2013-03-11 19:35:00
3:55 PM,39.0,37.4,94,29.52,5.0,WSW,11.5,17.3,N/A,,Overcast,240,2013-03-11 19:55:00
4:14 PM,37.8,36.7,96,29.54,2.0,WSW,11.5,20.7,N/A,,Overcast,240,2013-03-11 20:14:00
4:34 PM,37.4,35.8,94,29.55,5.0,SW,18.4,26.5,N/A,,Overcast,230,2013-03-11 20:34:00
4:55 PM,36.9,35.1,93,29.55,7.0,SW,12.7,25.3,N/A,,Overcast,230,2013-03-11 20:55:00
5:14 PM,36.5,34.7,93,29.56,5.0,SW,15.0,23.0,N/A,,Overcast,220,2013-03-11 21:14:00
5:34 PM,36.0,34.0,93,29.57,4.0,SW,13.8,23.0,N/A,,Light Drizzle,230,2013-03-11 21:34:00
5:55 PM,35.8,34.2,94,29.57,3.0,SW,11.5,18.4,N/A,,Light Drizzle,230,2013-03-11 21:55:00
6:14 PM,35.8,34.2,94,29.58,2.5,SW,13.8,21.9,N/A,Rain,Rain,230,2013-03-11 22:14:00
6:35 PM,35.6,34.0,94,29.59,4.0,SW,13.8,23.0,N/A,Rain,Light Rain,220,2013-03-11 22:35:00
7:15 PM,35.1,33.4,94,29.60,5.0,SW,13.8,27.6,N/A,Rain,Light Rain,220,2013-03-11 23:15:00
7:34 PM,34.7,33.3,94,29.60,5.0,SW,15.0,24.2,N/A,Rain,Light Rain,230,2013-03-11 23:34:00
7:55 PM,34.5,33.3,95,29.61,5.0,SW,13.8,23.0,N/A,Rain,Light Rain,230,2013-03-11 23:55:00
8:15 PM,34.7,33.4,95,29.62,7.0,WSW,18.4,27.6,N/A,Rain,Light Rain,240,2013-03-12 00:15:00
8:34 PM,34.3,33.3,96,29.64,10.0,WSW,12.7,20.7,N/A,Rain,Light Rain,250,2013-03-12 00:34:00
8:54 PM,34.5,33.3,95,29.64,10.0,WSW,12.7,18.4,N/A,,Overcast,250,2013-03-12 00:54:00
9:15 PM,34.5,32.9,94,29.65,10.0,West,12.7,20.7,N/A,,Overcast,260,2013-03-12 01:15:00
9:34 PM,34.2,32.9,95,29.66,7.0,WSW,10.4,19.6,N/A,,Overcast,250,2013-03-12 01:34:00
9:55 PM,33.8,32.5,95,29.67,5.0,WSW,12.7,21.9,N/A,Snow,Light Snow,250,2013-03-12 01:55:00
10:15 PM,34.5,32.7,93,29.67,10.0,WSW,11.5,18.4,N/A,,Overcast,250,2013-03-12 02:15:00
10:34 PM,34.7,32.5,92,29.68,10.0,WSW,15.0,20.7,N/A,,Overcast,250,2013-03-12 02:34:00
10:54 PM,34.5,32.0,90,29.69,10.0,WSW,15.0,24.2,N/A,,Overcast,240,2013-03-12 02:54:00
11:14 PM,34.5,32.0,90,29.69,10.0,WSW,11.5,20.7,N/A,,Overcast,240,2013-03-12 03:14:00
11:35 PM,34.3,32.0,91,29.70,10.0,WSW,15.0,18.4,N/A,,Overcast,250,2013-03-12 03:35:00
11:55 PM,34.2,31.8,91,29.71,10.0,WSW,13.8,23.0,N/A,,Overcast,240,2013-03-12 03:55:00